{"data":{"norad_id":49735,"intl_designator":"2021-115M","name":"STARLINK-3113","alt_names":[],"object_type":"PAYLOAD","status":"ACTIVE","operator":null,"country":"US","launch_date":"2021-12-02","launch_site_code":"AFETR","launch_vehicle":null,"mission":null,"orbit_class":"UNKNOWN","rcs_meters":null,"size_class":null,"mass_kg":null,"dimensions":null,"purposes":["comms"],"wikipedia_slug":null,"has_3d_model":false,"image_url":null,"decayed_at":null,"tle_current":{"epoch":"2026-09-19T21:37:18.924672Z","epoch_age_seconds":96772,"freshness":"FRESH","line1":"1 49735U 21115M   26262.90091348 -.00002331  00000+0 -57905-4 0  9990","line2":"2 49735  53.1600 352.2364 0001146  92.4727 267.6407 15.34388646264915","mean_motion":15.34388646,"eccentricity":0.0001146,"inclination_deg":53.16,"raan_deg":352.2364,"arg_perigee_deg":92.4727,"mean_anomaly_deg":267.6407,"bstar":-5.7905e-5,"rev_number":26491,"period_min":93.848452525632,"perigee_km":461.95302273705,"apogee_km":463.52095105485,"semimajor_km":6840.8739868959,"source":"CELESTRAK","updated_at":"2026-09-20T09:00:39.404785Z"}}}